STARLINK-11471, 62225

Orbit data source: Space-Track

STARLINK-11471, 62225 is a payload satellite owned by SpaceX/Seattle (US) in LEO that was launched on Thu, 05 Dec 2024 UTC via an FALCON 9 launch vehicle from the Air Force Western Test Range (AFWTR). Payload-class satellites include a variety of spacecraft equipped with specific instruments for various scientific and technological missions. These include communications satellites like Starlink; space stations such as the ISS; scientific satellites like the Hubble; Earth observation satellites from companies like Planet Labs, Umbra, and HawkEye 360; GPS; miniature CubeSats for education and research; and military/defense satellites.

Loading next visibility...
Identifier
62225, 2024-231H
Orbit
LEO
Last TLE update
16 hours ago
Origin
Manufacturer
SpaceX/Seattle
Mission
Operational Commercial Communications
Bus & Motor
STARLINK V2M, Unknown motor
Mass
730 kg wet, ~700 kg dry
Launch date (UTC)
2024-12-05 (7 months ago)
Launch vehicle
FALCON 9
Launch site
Air Force Western Test Range (AFWTR)
Object type
Payload
Rocket body
Debris
Shape & HBR
Box + 2 Pan, 29 m
Radar Cross Section
36.964 m², Large (>1 m²)

Expand to show TLE details & history

TLE from 16 hours ago
0 STARLINK-11471
1 62225U 24231H   25182.50918674  .00100364  00000-0  82223-3 0  9991
2 62225  53.1570 259.2916 0001174  90.3624 269.7528 15.69740705 33965
Epoch: 2025-07-01T12:13Z
TLE epoch observation values (Epoch: 2025-07-01T12:13:13.734Z)
Latitude
-0.00005°
Longitude
156.18072°
Altitude
360.557 km
Speed
7.694 km/s
True Right ascension
17h 17m 09s
True Declination
0° 00' 00"
Sunlit
Object was in full shadow at epoch
Visualization orbit readout
Latitude
51.03671°
Longitude
-94.16442°
Altitude
364.537 km
Speed
7.697 km/s
Apparent Right ascension
02h 13m 38s
Apparent Declination
7° 45' 07"
Sunlit
Object is in daylight
Visualization observer readout
Local Sidereal Time
15:37:50
Azimuth
27.052° NE
Elevation
-38.515°
Doppler factor
1
Orbital elements
Apogee altitude
360.691 km
Perigee altitude
359.109 km
Semi-major axis
6,738.037 km
Eccentricity
0.00012
Inclination
53.157°
RAAN
259.2916°
Arg. of periapsis
90.3624°
True anomaly
Unknown
Mean anomaly
269.7528°
Eccentric anomaly
Unknown
Mean motion
3.92413 °/min
Orbital period
91.74 mins
BSTAR
0.00082223
Loading maneuver chart data...
Loading SW <> Apogee altitude chart data...
Loading historical data...
Loading historical data...
Loading historical data...
Loading historical data...
Loading historical data...
Loading historical data...
Loading historical data...

STARLINK-11471 Visibility forecast

Observer location: undefined°, undefined°

Span
Click to sort rows by Start time (UTC) header in descending order
Start Az.
Max El. time (UTC)
Max El. Az.
Max El.
End time (UTC)
End Az.
4 mins2025-07-02 14:42:30.677Z304.073° NW2025-07-02 14:44:30.677Z167.238° S42.195°2025-07-02 14:46:30.677Z137.288° SSE
|